Wind_Speed
4 5 3 3 7 10 15 11 13 13 14 16 17 20 20 21 21 21 21 19 18 17 18 19 19 18 19 19 19 20 18 16 18 18 17 15 13 13 12 13 14 14 14
8 11 3 6 7 12 16 13 17 18 18 17 20 22 21 21 20 20 18 19 19 21 20 21 20 19 18 19 18 19 20 19 16 18 18 18 15 14 13 11 11 13 13
8 14 7 9 9 15 13 23 24 23 23 19 21 21 20 20 21 19 18 18 18 18 19 19 19 19 19 19 18 18 17 16 16 15 15 16 17 16 13 11 11 10 11
9 9 13 17 11 20 21 26 24 22 21 19 20 20 19 20 19 18 18 17 18 19 19 18 18 19 20 20 19 17 17 15 15 15 16 16 15 15 15 15 13 11 9
12 9 14 12 8 12 13 19 17 19 18 18 18 19 20 19 18 17 18 18 19 19 19 18 18 19 19 18 18 17 17 15 15 15 16 17 16 14 14 14 14 14 13
15 12 13 11 13 13 17 17 17 17 18 17 18 19 20 18 18 18 18 18 18 18 18 18 18 18 18 16 15 16 17 15 15 15 16 18 19 15 16 17 16 15 15
14 16 15 13 13 15 16 15 17 16 18 17 17 18 18 18 18 18 17 17 18 18 18 17 17 17 18 16 12 12 13 13 11 13 13 13 19 18 18 17 17 17 16
15 17 16 13 13 15 15 16 16 16 17 16 17 17 17 17 17 17 16 17 17 17 17 16 16 16 17 14 11 8 9 9 8 8 10 12 18 16 16 16 17 14 13
15 16 18 17 14 14 14 16 16 14 16 17 15 16 17 17 17 17 17 17 17 16 16 16 15 16 16 14 11 7 7 6 7 7 7 10 17 16 15 16 16 16 16
16 16 19 18 17 16 16 15 16 15 16 17 15 15 16 16 16 16 16 16 15 16 15 15 15 12 10 11 9 6 7 5 7 7 7 11 15 16 16 15 16 15 15
19 17 17 18 18 18 18 17 16 16 16 16 14 14 13 12 12 14 15 14 15 15 15 15 13 11 11 10 8 8 7 9 8 8 8 12 15 15 14 14 14 14 14
21 22 18 19 19 18 16 14 13 14 15 15 13 12 12 12 12 12 13 13 13 12 11 12 10 10 10 11 11 9 9 10 10 9 10 13 14 14 15 14 14 14 13
27 24 24 21 19 18 16 15 16 16 15 14 13 12 12 12 12 11 11 11 10 11 11 10 10 11 12 11 11 10 10 9 9 9 10 11 15 15 15 14 14 13 13
29 26 23 23 21 19 18 17 16 16 16 16 15 13 12 12 12 12 12 11 11 11 11 12 12 12 12 12 11 11 11 11 11 10 10 11 14 15 15 15 14 14 14
33 30 27 25 24 22 20 18 17 16 16 15 14 14 12 12 12 11 12 11 11 10 12 12 12 12 12 12 11 11 12 11 11 11 11 13 15 15 14 14 14 15 15
35 33 28 27 26 23 21 19 18 18 16 15 15 13 12 11 11 10 11 11 10 11 12 11 12 12 14 13 11 11 13 10 11 12 13 13 13 14 14 14 15 15 15
36 34 31 29 27 25 24 22 20 19 17 15 14 12 12 11 10 9 10 10 10 10 9 10 11 11 13 14 12 11 12 8 9 10 13 11 10 11 13 16 17 16 17
36 35 32 30 28 26 24 23 22 19 17 15 14 12 11 11 9 9 9 10 9 9 9 11 13 13 16 19 15 13 9 5 7 7 14 10 10 12 11 16 17 18 18
41 38 34 32 30 28 25 24 22 20 18 17 15 12 11 10 9 7 8 9 8 9 10 11 13 14 18 20 14 13 4 4 4 5 9 8 12 13 12 13 16 17 20
42 40 36 33 32 30 28 25 22 20 18 15 14 12 11 10 9 8 8 8 7 8 10 11 13 14 16 21 13 12 5 4 7 9 9 10 11 10 15 19 19 25 21
40 41 41 38 36 35 33 31 27 25 21 17 14 12 12 11 10 9 8 7 7 9 11 12 12 14 17 22 11 9 7 6 8 12 10 9 10 17 23 18 29 24 23
38 41 42 40 39 38 38 35 30 27 20 19 16 13 11 10 9 8 7 7 7 7 9 10 13 13 13 18 9 2 3 2 8 15 7 6 13 22 17 29 26 25 25
36 41 42 41 41 39 37 32 25 24 22 20 16 14 11 9 8 6 6 5 5 6 8 9 10 11 10 12 14 8 2 2 7 5 10 10 23 16 31 29 27 28 28
37 37 41 43 42 40 38 36 35 28 24 22 20 15 12 9 7 6 5 3 4 5 6 6 6 7 7 8 3 7 3 3 2 4 6 17 4 25 25 27 30 31 25
34 41 42 43 42 40 40 37 36 29 25 22 19 16 14 10 7 5 3 1 2 4 4 4 4 5 6 4 3 3 3 5 11 6 5 11 23 20 23 25 29 28 26
29 33 37 41 38 39 39 35 33 28 24 23 20 18 14 10 8 5 3 0 1 3 2 3 4 4 5 4 2 2 3 3 4 6 4 11 18 21 27 32 28 29 29
Wind_Direction
79 91 136 183 153 171 165 159 160 144 126 120 110 103 97 91 84 79 75 73 76 81 77 74 69 64 60 56 55 49 51 73 72 70 69 66 68 71 70 70 66 64 63
81 72 37 172 174 174 163 155 145 135 124 118 108 95 87 83 82 76 75 70 63 63 68 67 63 65 58 54 54 54 66 77 77 68 63 60 58 61 61 62 68 60 57
81 60 39 130 154 156 166 153 119 112 107 103 91 89 88 82 76 75 72 70 71 68 65 63 60 58 54 55 52 62 68 77 73 71 61 54 49 46 53 57 57 50 50
100 76 78 99 85 90 84 86 98 94 93 92 91 90 86 82 81 79 78 75 70 69 68 64 60 55 53 53 58 68 64 75 73 64 58 52 50 40 39 39 41 38 35
105 99 101 84 88 85 88 79 91 101 97 91 91 91 88 85 82 81 77 73 70 67 66 64 59 55 52 55 65 73 69 82 80 70 64 55 50 43 38 33 30 28 28
113 105 113 103 101 102 95 104 101 104 103 100 96 91 90 88 86 78 76 74 72 69 66 63 58 54 53 58 64 71 77 80 84 77 67 63 46 45 44 40 33 24 18
126 114 119 112 113 110 109 110 110 106 102 99 94 93 92 89 86 82 79 76 72 71 65 61 57 55 53 56 67 71 72 72 71 72 62 59 39 30 33 28 25 28 26
139 132 128 127 123 119 120 118 109 106 105 102 97 96 94 88 87 82 77 74 72 67 65 61 57 56 53 56 64 77 78 71 67 62 52 44 32 27 21 20 17 13 13
158 154 150 138 130 126 122 117 114 112 106 103 100 99 95 94 88 84 76 73 69 66 61 61 56 56 54 54 59 70 66 60 49 49 35 28 21 18 13 10 10 8 5
167 166 158 153 147 140 128 115 116 117 109 107 108 107 108 102 98 89 87 75 71 69 62 59 57 58 54 51 59 62 52 43 35 32 19 8 12 10 8 5 3 1 359
181 177 169 160 155 154 148 134 130 125 122 122 125 121 118 113 108 105 85 84 77 70 67 62 61 64 55 47 48 46 33 35 26 21 11 9 8 6 359 357 355 356 354
179 184 180 169 166 167 161 157 153 144 140 133 135 131 126 120 108 104 100 89 87 77 73 66 63 60 57 46 42 39 33 25 14 11 2 12 16 9 1 358 353 353 350
182 178 181 176 177 182 169 156 155 150 145 143 142 139 134 124 112 102 94 86 82 74 66 65 55 48 43 39 36 33 28 20 12 6 355 7 17 12 6 360 357 356 353
187 184 182 183 182 182 172 168 159 154 151 146 143 140 136 127 117 102 94 86 78 71 65 53 52 47 43 39 38 33 28 16 12 22 26 34 27 26 22 17 16 19 18
192 191 187 184 185 183 174 169 159 154 153 147 145 142 141 132 118 105 96 87 76 64 60 50 48 43 45 37 33 32 22 24 35 45 46 53 44 37 36 28 27 22 18
194 193 188 188 187 185 178 172 164 157 150 147 141 142 135 131 118 110 101 87 73 59 56 47 41 39 35 28 26 28 22 37 50 51 52 53 50 43 44 36 25 16 8
196 191 188 187 187 185 181 175 167 161 156 151 142 138 138 131 121 108 94 86 72 64 57 50 39 36 25 22 20 20 19 45 48 53 48 47 44 44 39 28 16 5 359
197 192 189 187 184 184 181 175 171 165 159 154 147 143 135 127 121 112 98 82 69 59 48 39 29 26 18 12 11 15 14 46 30 61 40 41 37 21 10 12 11 6 0
200 193 189 188 185 182 178 174 170 164 161 156 151 145 135 129 121 111 96 88 78 62 52 44 34 25 13 6 7 2 19 37 68 54 15 30 16 4 359 354 351 346 346
200 196 191 189 186 181 175 171 167 165 163 159 154 149 143 138 129 121 111 97 82 68 58 46 38 30 17 4 6 9 44 15 142 21 24 3 4 17 3 351 344 340 336
195 193 191 187 185 180 175 169 168 168 164 159 157 153 149 144 136 130 116 98 73 54 47 40 36 30 22 14 13 26 41 118 148 17 3 18 25 356 340 344 338 340 337
187 191 190 190 185 184 181 179 176 171 169 167 163 157 152 148 138 128 114 92 68 57 50 40 33 40 32 27 20 6 10 8 270 305 8 12 345 338 348 335 337 337 334
188 188 188 189 188 188 188 181 174 169 165 166 168 164 160 156 144 133 120 94 64 50 45 39 35 43 42 47 56 48 8 343 329 312 313 304 332 336 331 335 335 332 332
190 187 188 190 189 189 189 186 181 172 168 182 174 168 164 163 157 147 132 94 58 44 40 34 30 40 48 54 48 13 23 287 324 315 284 310 308 324 329 330 328 327 327
183 183 185 187 189 189 190 191 187 185 183 174 172 168 166 164 160 154 149 92 44 28 20 17 13 20 25 39 29 350 307 253 264 254 300 312 317 317 322 322 319 322 324
178 176 179 183 183 189 191 193 192 187 179 170 171 171 169 167 167 173 182 193 357 344 346 351 350 346 348 337 331 307 266 248 233 256 272 287 285 308 316 320 322 324 324
Height
802 801 801 802 801 803 804 804 804 804 804 805 805 806 807 808 808 808 808 808 808 808 808 807 808 808 807 806 806 805 804 804 804 804 804 804 804 804 804 803 804 802 803
801 801 801 801 801 801 802 801 803 804 805 808 807 807 809 809 809 810 810 809 810 810 810 809 810 810 810 809 808 807 806 807 807 807 807 807 807 807 806 806 806 806 806
802 802 802 801 800 800 802 799 801 803 805 803 806 810 812 811 811 812 813 813 813 813 812 812 813 812 812 811 810 809 809 809 809 810 810 810 809 809 808 808 808 808 808
804 804 799 800 798 797 800 793 804 804 809 813 813 813 813 812 814 815 815 816 815 814 814 814 814 814 813 812 811 810 811 810 811 811 812 812 811 811 811 810 809 809 809
804 804 798 801 804 803 800 803 807 812 813 815 815 815 814 815 817 817 817 816 816 816 816 816 815 815 814 814 812 812 812 812 812 812 812 813 814 814 813 812 811 811 811
805 804 802 805 809 807 809 812 814 816 815 817 818 816 815 818 819 819 819 819 819 817 818 817 817 816 815 815 814 813 813 814 813 813 814 815 815 815 815 814 813 813 812
805 805 809 811 811 812 810 815 815 817 817 817 818 818 818 820 819 821 822 821 821 820 819 819 819 818 817 816 815 815 815 815 815 814 815 815 816 816 815 816 815 813 813
806 806 808 813 815 815 815 815 817 818 818 820 819 820 820 821 821 822 823 823 822 822 821 821 820 819 817 816 815 816 816 815 815 816 816 816 817 818 818 815 815 815 814
810 809 811 813 815 816 817 816 817 820 818 819 821 821 821 821 822 823 824 823 823 822 822 821 821 819 819 818 817 816 816 817 817 816 816 816 816 818 818 817 816 815 815
811 812 811 813 813 815 816 816 818 821 819 818 823 822 821 823 823 822 821 823 824 823 824 822 820 820 819 818 817 817 818 818 817 816 816 816 816 817 817 817 816 815 815
810 812 813 812 814 816 817 817 819 821 819 818 821 824 823 824 823 822 823 824 824 824 824 822 821 821 819 820 818 818 818 817 818 817 816 815 815 816 817 817 816 815 814
805 808 811 812 814 815 816 817 818 820 820 819 822 824 824 824 824 825 824 824 822 823 822 821 822 821 819 820 819 818 818 817 817 816 816 814 815 815 817 816 815 814 813
803 806 809 811 813 815 816 817 820 819 818 820 822 824 824 825 825 826 824 824 824 823 823 823 822 820 819 820 820 819 819 817 817 815 816 813 812 814 815 816 815 814 813
798 803 807 810 812 816 816 819 818 818 819 821 823 825 824 825 826 826 825 826 825 826 824 824 821 823 822 821 822 821 820 818 817 815 817 813 813 814 816 816 816 815 813
796 801 805 807 810 814 815 818 818 818 820 822 824 825 826 825 826 826 827 827 826 827 823 824 824 824 822 823 822 821 820 818 817 816 816 814 813 815 816 817 816 816 815
794 798 801 804 807 811 812 816 817 819 820 823 824 827 824 826 825 827 827 827 827 826 824 826 825 824 822 823 823 821 819 818 817 817 816 814 815 816 817 817 817 816 816
790 795 799 803 806 808 811 814 815 817 821 823 823 826 826 825 826 826 825 827 828 826 827 825 826 822 822 822 821 819 817 817 817 817 816 815 816 816 815 815 815 815 815
786 790 796 800 803 806 808 811 815 818 819 821 824 827 826 825 827 827 827 827 828 827 827 823 824 821 820 819 818 817 817 817 817 816 817 817 816 816 815 814 813 813 813
779 784 790 795 799 803 807 811 815 817 819 822 825 825 825 825 827 827 828 828 830 828 825 825 823 820 820 820 817 817 816 816 816 817 817 817 817 816 815 814 813 812 811
773 780 785 790 796 800 805 809 814 817 821 823 823 824 824 826 827 828 829 829 829 827 826 824 822 822 822 819 816 815 814 815 817 819 817 816 816 815 814 813 812 810 809
769 774 780 787 791 795 800 806 812 815 818 820 823 824 824 825 826 827 827 827 827 826 825 824 824 823 820 817 815 815 815 815 817 817 817 816 816 814 813 811 810 808 806
762 769 775 781 787 791 796 802 807 811 816 820 822 823 824 824 825 825 825 826 826 826 826 825 824 823 823 821 819 819 820 819 817 816 816 815 814 813 811 809 807 805 803
756 761 768 776 782 788 794 800 805 811 815 817 819 820 822 823 823 824 825 826 826 826 826 826 825 824 824 824 822 822 823 825 822 815 814 813 813 811 809 806 804 802 799
745 756 764 770 778 785 790 794 798 802 807 811 814 817 820 822 823 824 825 826 826 825 825 826 826 825 824 824 824 824 826 827 827 820 814 811 810 809 806 804 801 798 796
741 746 755 765 773 780 786 790 795 800 805 809 813 815 818 821 823 824 825 825 825 824 825 826 825 824 824 824 825 825 826 826 827 827 817 808 805 805 802 800 797 794 792
740 748 754 761 769 776 783 789 793 798 803 807 811 814 817 819 821 823 824 825 824 825 825 825 825 824 824 824 824 825 825 825 824 825 821 815 811 801 797 794 792 789 787